This demonstration page uses our WeatherBlox Daily Observations layout. Learn more.

Left ArrowRight Arrow

34.02893, -84.19858

Hourly Observations for August 20, 2022

Temp ( °F °C ) Dew Point ( °F °C ) Humidity (%) Winds ( mph kmh ) Pressure ( in mb ) Visibility ( mi km ) Precip ( " mm )
12:07 am 00:07 Mostly Cloudy 73 22.8 71 21.7 94 94 ESE 3 6 30.07 1018 10 16 0.00 0.00
12:53 am 00:53 Cloudy 73 22.8 71 21.7 94 94 SE 5 7 30.06 1018 10 16 0.00 0.00
1:33 am 01:33 Cloudy 73 22.8 71 21.7 94 94 SE 3 6 30.09 1019 10 16 0.00 0.00
1:53 am 01:53 Cloudy 73 22.8 71 21.7 94 94 SE 3 6 30.07 1018 10 16 0.00 0.00
2:34 am 02:34 Cloudy 73 22.8 71 21.7 94 94 Calm 30.07 1018 9 14 0.00 0.00
2:41 am 02:41 Cloudy 73 22.8 71 21.7 94 94 Calm 30.07 1018 10 16 0.00 0.00
2:53 am 02:53 Cloudy 73 22.8 71 21.7 94 94 Calm 30.07 1018 10 16 0.00 0.00
3:53 am 03:53 Cloudy 73 22.8 71 21.7 94 94 Calm 30.06 1018 10 16 0.00 0.00
4:53 am 04:53 Mostly Cloudy 72 22.2 71 21.7 97 97 Calm 30.07 1018 8 13 0.00 0.00
5:16 am 05:16 Mostly Cloudy 71 21.7 70 21.1 96 96 Calm 30.08 1019 8 13 0.00 0.00
5:24 am 05:24 Mostly Cloudy 71 21.7 70 21.1 96 96 Calm 30.08 1019 8 13 0.00 0.00
5:35 am 05:35 Mostly Cloudy 71 21.7 70 21.1 96 96 Calm 30.08 1019 7 11 0.00 0.00
5:53 am 05:53 Partly Cloudy with Mist and Fog 71 21.7 70 21.1 96 96 Calm 30.08 1019 6 10 0.00 0.00
6:53 am 06:53 Mostly Cloudy with Mist and Fog 70 21.1 70 21.1 100 100 Calm 30.10 1019 6 10 0.00 0.00
7:14 am 07:14 Mostly Cloudy with Mist and Fog 70 21.1 69 20.6 97 97 Calm 30.11 1020 5 8 0.00 0.00
7:53 am 07:53 Partly Cloudy with Mist and Fog 72 22.2 71 21.7 97 97 Calm 30.11 1020 5 8 0.00 0.00
8:45 am 08:45 Mostly Sunny 75 23.9 71 21.7 88 88 Calm 30.12 1020 10 16 0.00 0.00
8:53 am 08:53 Mostly Sunny 76 24.4 71 21.7 85 85 Calm 30.12 1020 10 16 0.00 0.00
9:21 am 09:21 Mostly Cloudy 76 24.4 71 21.7 85 85 Calm 30.13 1020 10 16 0.00 0.00
9:53 am 09:53 Cloudy 76 24.4 71 21.7 85 85 SSE 5 7 30.14 1021 10 16 0.00 0.00
10:19 am 10:19 Partly Cloudy 78 25.6 71 21.7 79 79 Calm 30.14 1021 10 16 0.00 0.00
10:32 am 10:32 Mostly Cloudy 77 25 71 21.7 82 82 Calm 30.15 1021 10 16 0.00 0.00
10:53 am 10:53 Cloudy 77 25 71 21.7 82 82 Calm 30.14 1021 10 16 0.00 0.00
11:10 am 11:10 Partly Cloudy 80 26.7 71 21.7 74 74 Calm 30.13 1020 10 16 0.00 0.00
11:53 am 11:53 Mostly Cloudy 80 26.7 71 21.7 74 74 S 5 7 30.14 1021 10 16 0.00 0.00
12:00 pm 12:00 Mostly Cloudy 80 26.7 71 21.7 74 74 SSW 5 7 30.14 1021 10 16 0.00 0.00
12:53 pm 12:53 Mostly Sunny 81 27.2 71 21.7 72 72 SSW 3 6 30.13 1020 10 16 0.00 0.00
1:36 pm 13:36 Cloudy 81 27.2 71 21.7 72 72 Calm 30.12 1020 10 16 0.00 0.00
1:53 pm 13:53 Cloudy 81 27.2 71 21.7 72 72 NW 7 11 30.11 1020 10 16 0.00 0.00
2:18 pm 14:18 Mostly Cloudy 81 27.2 73 22.8 77 77 N 5 7 30.10 1019 10 16 0.00 0.00
2:53 pm 14:53 Cloudy 81 27.2 71 21.7 72 72 N 5 7 30.09 1019 10 16 0.00 0.00
3:53 pm 15:53 Mostly Cloudy 83 28.3 73 22.8 72 72 Calm 30.07 1018 10 16 0.01 0.25
4:53 pm 16:53 Sunny 83 28.3 71 21.7 67 67 VRB 5 7 30.06 1018 10 16 0.01 0.13
5:53 pm 17:53 Partly Cloudy 83 28.3 70 21.1 65 65 S 7 11 30.05 1018 10 16 0.00 0.00
6:53 pm 18:53 Mostly Cloudy 81 27.2 73 22.8 77 77 Calm 30.06 1018 10 16 0.00 0.00
7:53 pm 19:53 Mostly Sunny 78 25.6 74 23.3 87 87 Calm 30.06 1018 10 16 0.00 0.00
8:53 pm 20:53 Partly Cloudy 76 24.4 73 22.8 91 91 N 3 6 30.07 1018 10 16 0.00 0.00
9:53 pm 21:53 Clear 77 25 73 22.8 88 88 Calm 30.09 1019 10 16 0.00 0.00
10:53 pm 22:53 Clear 75 23.9 72 22.2 90 90 Calm 30.09 1019 10 16 0.00 0.00
11:32 pm 23:32 Partly Cloudy with Thunderstorms 76 24.4 72 22.2 88 88 Calm 30.09 1019 10 16 0.00 0.00
11:53 pm 23:53 Mostly Cloudy with Thunderstorms 71 21.7 69 20.6 93 93 S 15 24 30.11 1020 3 5 0.05 1.27

Powered by AerisWeather